Home > Weather > Taiyuan > Past weeks

Flag for China Weather for the Past 2 Weeks in Taiyuan, Shanxi, China

Now
41 °F

Haze.


Feels Like: 39 °F
Forecast: 32 / 47 °F
Wind: 3 mph from Northeast

Location: Taiyuan Airport

Current Time: Feb 11, 2016 at 7:10:12 AM

Latest Report: Feb 11, 2016 at 6:00 AM


Visibility: 3 mi

Pressure: 29.89 "Hg (27.13 "Hg at 790m altitude)

Humidity: 33%

Dew point: 14 °F

Location of TaiyuanLocation

Historic Weather in Taiyuan — Graph

°F

Taiyuan Temperature Yesterday

Maximum temperature yesterday: 55 °F (at 4:30 PM)
Minimum temperature yesterday: 23 °F (at 4:00 AM)
Average temperature yesterday: 40 °F

High & Low Weather Summary for the Past Weeks

 TemperatureHumidityPressure
High57 °F (Feb 9, 4:00 PM)86% (Jan 30, 3:00 PM)30.60 "Hg (Jan 30, 3:00 PM)
Low3 °F (Jan 27, 5:00 AM)9% (Feb 6, 5:30 PM)29.83 "Hg (Feb 10, 2:30 PM)
Average27 °F34%30.24 "Hg
* Reported Jan 27 5:00 AM — Feb 11 5:00 AM, Taiyuan, Weather by CustomWeather, © 2016

Note: Actual official high and low records may vary slightly from our data, if they occured in-between our weather recording intervals... More about our weather records

Advertising

Taiyuan Weather History for the Previous 24 Hours

 ConditionsComfort  
Time TempWeatherWind HumidityBarometerVisibility
5:00 AM
Thu, Feb 11
39 °FHaze.1 mph39%29.89 "Hg3 mi
4:30 AM41 °FHaze.1 mph36%29.89 "Hg3 mi
4:00 AM41 °FClear.3 mph36%29.89 "Hg4 mi
3:30 AM43 °FClear.3 mph34%29.89 "Hg4 mi
3:00 AM41 °FClear.1 mph33%29.89 "Hg4 mi
2:30 AM43 °FClear.1 mph31%29.89 "Hg4 mi
2:00 AM43 °FClear.3 mph31%29.89 "Hg4 mi
1:30 AM43 °FClear.6 mph31%29.89 "Hg4 mi
1:00 AM43 °FClear.6 mph31%29.89 "Hg4 mi
12:30 AM45 °FClear.8 mph31%29.89 "Hg4 mi
12:00 AM45 °FClear.6 mph31%29.86 "Hg4 mi
11:30 PM
Wed, Feb 10
45 °FClear.8 mph29%29.89 "Hg4 mi
11:00 PM46 °FClear.8 mph29%29.89 "Hg4 mi
10:30 PM46 °FClear.8 mph29%29.89 "Hg4 mi
10:00 PM45 °FClear.1 mph37%29.89 "Hg4 mi
9:30 PM46 °FHaze.1 mph37%29.89 "Hg3 mi
9:00 PM46 °FClear.1 mph37%29.86 "Hg4 mi
8:30 PM50 °FClear.3 mph32%29.86 "Hg4 mi
8:00 PM50 °FHaze.6 mph30%29.86 "Hg2 mi
7:30 PM50 °FHaze.6 mph28%29.86 "Hg2 mi
7:00 PM48 °FHaze.No wind27%29.86 "Hg2 mi
6:30 PM50 °FHaze.1 mph25%29.83 "Hg3 mi
6:00 PM50 °FHaze.1 mph24%29.83 "Hg3 mi
5:30 PM54 °FHaze.1 mph22%29.83 "Hg3 mi
5:00 PM55 °FClear.1 mph21%29.83 "Hg4 mi
4:30 PM55 °FClear.1 mph19%29.83 "Hg4 mi
4:00 PM54 °FClear.1 mph21%29.83 "Hg4 mi
3:30 PM54 °FClear.3 mph21%29.83 "Hg4 mi
3:00 PM54 °FClear.1 mph21%29.83 "Hg4 mi
2:30 PM52 °FClear.6 mph20%29.83 "Hg4 mi
2:00 PM52 °FClear.6 mph17%29.86 "Hg4 mi
1:30 PM50 °FClear.8 mph19%29.86 "Hg5 mi
1:00 PM48 °FClear.8 mph18%29.89 "Hg5 mi
12:30 PM48 °FClear.8 mph17%29.89 "Hg4 mi
12:00 PM45 °FClear.6 mph21%29.92 "Hg4 mi
11:30 AM43 °FClear.6 mph22%29.95 "Hg4 mi
11:00 AM41 °FClear.6 mph24%29.95 "Hg4 mi
10:30 AM37 °FClear.3 mph28%29.95 "Hg4 mi
10:00 AM36 °FClear.3 mph30%29.95 "Hg4 mi
9:30 AM34 °FClear.1 mph32%29.95 "Hg4 mi
8:30 AM27 °FClear.3 mph43%29.98 "Hg4 mi
8:00 AM27 °FSunny.3 mph46%29.95 "Hg10 mi
7:30 AM25 °FSunny.1 mph50%29.95 "Hg10 mi
7:00 AM25 °FClear.1 mph50%29.95 "Hg10 mi
Weather by CustomWeather, © 2016

See weather overviewHow to use our weather pages